"Pseudo-MPEC" for SE00072

Created 2026 Aug 20 18:35:12 UT using Find_Orb

Click here for an explanation of pseudo-MPECs

 
 Astrometry: 
     SE00072*0B2026 08 19.01261522 50 10.896+01 25 13.87   ~8J7K 17.53VVNEOCPR43
     SE00072 0B2026 08 19.01387322 50 15.425+01 31 38.82   ~8J7K 17.37VVNEOCPR43
     SE00072 0B2026 08 19.01649122 50 24.653+01 44 42.54   ~8J7K 17.64VVNEOCPR43
     SE00072 0B2026 08 19.05938922 52 24.120+04 36 17.96   ~8J7K 17.15VVNEOCPR43
     SE00072 0B2026 08 19.06075122 52 27.158+04 40 41.23   ~8J7K 15.66VVNEOCPR43
     SE00072 0B2026 08 19.06205922 52 30.043+04 44 52.33   ~8J7K 17.74VVNEOCPR43
     SE00072 0B2026 08 19.06336722 52 32.892+04 48 59.44   ~8J7K 18.08VVNEOCPR43
     SE00072 0B2026 08 19.06467722 52 35.705+04 53 03.88   ~8J7K 17.72VVNEOCPR43
     SE00072 0B2026 08 19.12326522 54 18.223+07 17 24.79   ~8J7K 18.68VVNEOCPR43
     SE00072 0B2026 08 19.12588322 54 22.046+07 22 29.64   ~8J7K 18.33VVNEOCPR43
     SE00072 0B2026 08 19.33019623 01 20.688+11 16 16.75   ~8KIZ       VNEOCPU62
     SE00072 0B2026 08 19.36936723 01 19.409+11 40 44.40   ~8KIZ 19.69VVNEOCPU62

Station data:
(R43) TransAstra TKO at e-EYE  (N38.215291 W6.627190)  Spain.
(U62) TransAstra TKO at SkiesAway  (N35.808074 W121.044920)  US/California.

Orbital elements:  SE00072
   Perigee 2026 Aug 18.839271 +/- 4.31e-5 TT = 20:08:33.0 (JD 2461271.339271)
Epoch 2026 Aug 19.0 TT = JDT 2461271.5                           AutoNEOCP
q 50535.64454 +/- 16.2              (J2000 equator)
H   30.39 G 0.15                    Peri.  285.025398 +/- 0.0020
                                    Node   341.302977 +/- 0.00018
e  21.99566444 +/- 0.0135           Incl.   71.812686 +/- 0.0009
From 12 observations 2026 Aug. 19 (8.6 hr); mean residual 0".63
Residuals in arcseconds: 
260819 R43  .19-  1.5-    260819 R43  .19+  .09+    260819 R43  .17-  .03+    
260819 R43  .30-  1.1-    260819 R43  .21+  1.0+    260819 R43  .05+  .55+    
260819 R43  .30-  1.3-    260819 R43  .18+  .86+    260819 U62  .12-  .94-    
260819 R43  .18+  .38+    260819 R43  .01+  .45+    260819 U62  .12+  .72+    

Ephemerides (geocentric):
Date (UTC) HH   RA             Dec           delta  r     elong  mag " sig PA
---- --------  ------------   ------------  ------ ------ -----  --- --------
2026 08 20 19  23 05 58.242   +15 23 57.44  .01458 1.0241 147.6 22.6 1.08  22
2026 08 20 20  23 06 00.539   +15 25 34.32  .01489 1.0244 147.6 22.7 1.09  22
2026 08 20 21  23 06 02.741   +15 27 07.14  .01520 1.0246 147.6 22.7 1.10  22
2026 08 20 22  23 06 04.852   +15 28 36.15  .01551 1.0249 147.6 22.7 1.11  22
2026 08 20 23  23 06 06.878   +15 30 01.57  .01582 1.0251 147.6 22.8 1.11  22
2026 08 21 00  23 06 08.823   +15 31 23.60  .01613 1.0254 147.6 22.8 1.12  22
2026 08 21 01  23 06 10.693   +15 32 42.44  .01644 1.0256 147.6 22.9 1.13  22
2026 08 21 02  23 06 12.491   +15 33 58.25  .01675 1.0259 147.6 22.9 1.14  22
2026 08 21 03  23 06 14.221   +15 35 11.20  .01706 1.0261 147.6 23.0 1.15  22
2026 08 21 04  23 06 15.887   +15 36 21.45  .01737 1.0264 147.7 23.0 1.15  22
2026 08 21 05  23 06 17.491   +15 37 29.13  .01768 1.0267 147.7 23.0 1.16  22
2026 08 21 06  23 06 19.038   +15 38 34.37  .01799 1.0269 147.7 23.1 1.17  22
2026 08 21 07  23 06 20.529   +15 39 37.30  .01830 1.0272 147.7 23.1 1.18  22
2026 08 21 08  23 06 21.968   +15 40 38.03  .01861 1.0274 147.7 23.1 1.18  22
2026 08 21 09  23 06 23.357   +15 41 36.66  .01892 1.0277 147.7 23.2 1.19  22
2026 08 21 10  23 06 24.698   +15 42 33.30  .01923 1.0279 147.7 23.2 1.19  22
2026 08 21 11  23 06 25.993   +15 43 28.04  .01954 1.0282 147.8 23.3 1.20  22
2026 08 21 12  23 06 27.246   +15 44 20.96  .01985 1.0285 147.8 23.3 1.21  22
2026 08 21 13  23 06 28.456   +15 45 12.16  .02016 1.0287 147.8 23.3 1.21  22
2026 08 21 14  23 06 29.627   +15 46 01.70  .02047 1.0290 147.8 23.4 1.22  22
2026 08 21 15  23 06 30.761   +15 46 49.65  .02078 1.0292 147.8 23.4 1.22  22
2026 08 21 16  23 06 31.857   +15 47 36.10  .02109 1.0295 147.8 23.4 1.23  22
2026 08 21 17  23 06 32.919   +15 48 21.09  .02140 1.0298 147.9 23.4 1.23  22
2026 08 21 18  23 06 33.948   +15 49 04.69  .02171 1.0300 147.9 23.5 1.24  22
2026 08 21 19  23 06 34.944   +15 49 46.96  .02202 1.0303 147.9 23.5 1.24  22
2026 08 21 20  23 06 35.910   +15 50 27.96  .02233 1.0305 147.9 23.5 1.25  22
2026 08 21 21  23 06 36.846   +15 51 07.73  .02264 1.0308 147.9 23.6 1.25  22
2026 08 21 22  23 06 37.754   +15 51 46.31  .02296 1.0311 148.0 23.6 1.26  22
2026 08 21 23  23 06 38.634   +15 52 23.77  .02327 1.0313 148.0 23.6 1.26  22
2026 08 22 00  23 06 39.488   +15 53 00.13  .02358 1.0316 148.0 23.7 1.27  22
2026 08 22 01  23 06 40.316   +15 53 35.45  .02389 1.0318 148.0 23.7 1.27  22
2026 08 22 02  23 06 41.121   +15 54 09.76  .02420 1.0321 148.0 23.7 1.27  22
2026 08 22 03  23 06 41.901   +15 54 43.09  .02451 1.0324 148.1 23.7 1.28  22
2026 08 22 04  23 06 42.659   +15 55 15.49  .02482 1.0326 148.1 23.8 1.28  22
2026 08 22 05  23 06 43.395   +15 55 46.98  .02513 1.0329 148.1 23.8 1.29  22
2026 08 22 06  23 06 44.109   +15 56 17.60  .02544 1.0331 148.1 23.8 1.29  22
2026 08 22 07  23 06 44.804   +15 56 47.38  .02575 1.0334 148.1 23.8 1.29  22
2026 08 22 08  23 06 45.478   +15 57 16.35  .02606 1.0337 148.2 23.9 1.30  22
2026 08 22 09  23 06 46.133   +15 57 44.53  .02637 1.0339 148.2 23.9 1.30  22
2026 08 22 10  23 06 46.770   +15 58 11.94  .02668 1.0342 148.2 23.9 1.30  22
2026 08 22 11  23 06 47.389   +15 58 38.63  .02699 1.0345 148.2 23.9 1.31  22
2026 08 22 12  23 06 47.990   +15 59 04.60  .02730 1.0347 148.3 24.0 1.31  22
2026 08 22 13  23 06 48.575   +15 59 29.89  .02761 1.0350 148.3 24.0 1.31  22
2026 08 22 14  23 06 49.143   +15 59 54.51  .02792 1.0352 148.3 24.0 1.32  22
2026 08 22 15  23 06 49.696   +16 00 18.48  .02823 1.0355 148.3 24.0 1.32  22
2026 08 22 16  23 06 50.233   +16 00 41.83  .02854 1.0358 148.4 24.1 1.32  22
2026 08 22 17  23 06 50.755   +16 01 04.57  .02885 1.0360 148.4 24.1 1.33  22
2026 08 22 18  23 06 51.263   +16 01 26.72  .02916 1.0363 148.4 24.1 1.33  22